Location: Unspecified
(0.0000°N, 0.0000°E)
Time: 02:13:44
(UTC+00:00)

FORMOSAT 3B - Visible Passes

Search period start: 16 May 2026 00:00
Search period end: 26 May 2026 00:00
Orbit: 756 x 818 km, 72.0° (Epoch: 14 May)

Date Brightness Start Highest point End Pass type
(mag) Time Alt. Az. Time Alt. Az. Time Alt. Az.
16 May 9.5 03:50:51 26° NNW 03:50:51 26° NNW 03:53:20 10° N visible
17 May 10.2 03:20:40 19° NNE 03:20:40 19° NNE 03:22:06 10° NNE visible
18 May 10.9 02:50:26 11° NNE 02:50:26 11° NNE 02:50:34 10° NNE visible
